Location: Casilda
(33.0440°S, 61.1680°W)
Time: 15:41:12
(UTC-03:00)

ISS - Pass Details

Date: 12 April 2021
Orbit: 418 x 422 km, 51.6° (Epoch: 17 April)

Event Time Altitude Azimuth Distance (km) Brightness Sun altitude
Exits shadow 05:00:27 14° 115° (ESE) 1,323 -0.5 -30.9°
Drops below altitude 10° 05:01:15 10° 103° (ESE) 1,518 0.0 -30.7°
Sets 05:03:51 0° 82° (E) 2,378 1.1 -30.2°
